TimeCST,TemperatureF,Dew PointF,Humidity,Sea Level PressureIn,VisibilityMPH,Wind Direction,Wind SpeedMPH,Gust SpeedMPH,PrecipitationIn,Events,Conditions,WindDirDegrees,DateUTC
12:13 AM,9.5,5.0,82,30.05,10.0,West,4.6,-,N/A,,Overcast,260,2013-02-06 06:13:00
12:33 AM,10.0,5.7,83,30.05,10.0,Calm,Calm,-,N/A,,Overcast,0,2013-02-06 06:33:00
1:13 AM,10.4,5.9,82,30.06,10.0,WSW,3.5,-,N/A,,Overcast,250,2013-02-06 07:13:00
1:33 AM,10.4,6.1,83,30.05,10.0,Calm,Calm,-,N/A,,Overcast,0,2013-02-06 07:33:00
1:53 AM,10.0,5.7,83,30.05,10.0,Calm,Calm,-,N/A,,Overcast,0,2013-02-06 07:53:00
2:13 AM,9.5,5.5,84,30.04,10.0,Calm,Calm,-,N/A,,Overcast,0,2013-02-06 08:13:00
2:33 AM,8.2,4.5,85,30.04,10.0,Calm,Calm,-,N/A,,Scattered Clouds,0,2013-02-06 08:33:00
2:53 AM,7.9,4.3,85,30.04,10.0,Calm,Calm,-,N/A,,Clear,0,2013-02-06 08:53:00
3:13 AM,6.6,3.4,87,30.02,10.0,Calm,Calm,-,N/A,,Clear,0,2013-02-06 09:13:00
3:33 AM,4.5,1.4,87,30.02,10.0,Calm,Calm,-,N/A,,Clear,0,2013-02-06 09:33:00
3:53 AM,4.1,1.2,88,30.01,10.0,Calm,Calm,-,N/A,,Clear,0,2013-02-06 09:53:00
4:13 AM,5.7,3.2,89,30.01,10.0,Calm,Calm,-,N/A,,Mostly Cloudy,0,2013-02-06 10:13:00
4:33 AM,8.8,5.7,87,30.01,10.0,South,4.6,-,N/A,,Overcast,170,2013-02-06 10:33:00
4:53 AM,9.5,5.9,85,30.02,10.0,South,4.6,-,N/A,,Overcast,180,2013-02-06 10:53:00
5:13 AM,10.0,5.9,83,30.03,10.0,Calm,Calm,-,N/A,,Overcast,0,2013-02-06 11:13:00
5:33 AM,10.8,5.9,81,30.03,10.0,Calm,Calm,-,N/A,,Overcast,0,2013-02-06 11:33:00
5:53 AM,11.3,5.9,79,30.02,10.0,South,3.5,-,N/A,,Overcast,170,2013-02-06 11:53:00
6:13 AM,10.9,5.9,80,30.01,10.0,Calm,Calm,-,N/A,,Overcast,0,2013-02-06 12:13:00
6:33 AM,11.1,6.1,80,29.99,10.0,Calm,Calm,-,N/A,,Overcast,0,2013-02-06 12:33:00
6:53 AM,11.3,6.8,82,29.99,10.0,Calm,Calm,-,N/A,,Overcast,0,2013-02-06 12:53:00
7:13 AM,11.8,6.8,80,30.00,10.0,Calm,Calm,-,N/A,,Overcast,0,2013-02-06 13:13:00
7:33 AM,12.0,7.3,81,30.01,10.0,South,5.8,-,N/A,,Overcast,170,2013-02-06 13:33:00
7:53 AM,12.4,7.5,81,30.01,10.0,SE,5.8,-,N/A,,Overcast,140,2013-02-06 13:53:00
8:13 AM,12.7,8.4,83,30.00,7.0,ESE,6.9,-,N/A,Snow,Light Snow,120,2013-02-06 14:13:00
8:33 AM,13.6,9.3,83,29.99,10.0,ESE,5.8,-,N/A,,Overcast,110,2013-02-06 14:33:00
8:53 AM,15.3,10.4,81,29.98,10.0,SE,8.1,-,N/A,,Overcast,130,2013-02-06 14:53:00
9:13 AM,14.9,11.3,86,29.98,0.5,SE,9.2,-,N/A,Snow,Light Snow,130,2013-02-06 15:13:00
9:33 AM,15.6,12.9,89,29.97,0.8,SE,9.2,-,N/A,Snow,Light Snow,130,2013-02-06 15:33:00
9:53 AM,16.2,13.5,89,29.97,1.5,ESE,9.2,-,N/A,Snow,Light Snow,120,2013-02-06 15:53:00
10:13 AM,17.8,14.9,88,29.95,5.0,ESE,10.4,-,N/A,Snow,Light Snow,120,2013-02-06 16:13:00
10:33 AM,18.5,15.4,88,29.94,7.0,SE,10.4,-,N/A,,Overcast,130,2013-02-06 16:33:00
10:53 AM,19.2,16.0,87,29.93,7.0,ESE,10.4,17.3,N/A,,Overcast,120,2013-02-06 16:53:00
11:13 AM,19.8,16.0,85,29.93,7.0,ESE,10.4,19.6,N/A,,Overcast,120,2013-02-06 17:13:00
11:33 AM,20.3,16.3,85,29.93,5.0,SE,16.1,-,N/A,,Overcast,130,2013-02-06 17:33:00
11:53 AM,20.8,16.3,83,29.91,7.0,East,15.0,18.4,N/A,,Overcast,100,2013-02-06 17:53:00
12:13 PM,21.2,16.7,83,29.92,7.0,ESE,9.2,-,N/A,,Overcast,110,2013-02-06 18:13:00
12:33 PM,21.6,16.5,81,29.94,10.0,ENE,6.9,-,N/A,,Overcast,70,2013-02-06 18:33:00
12:53 PM,22.5,17.1,80,29.91,10.0,East,10.4,-,N/A,,Scattered Clouds,100,2013-02-06 18:53:00
1:14 PM,23.0,17.2,79,29.91,10.0,ESE,8.1,-,N/A,,Clear,120,2013-02-06 19:14:00
1:33 PM,23.5,17.6,78,29.89,10.0,ESE,8.1,-,N/A,,Clear,110,2013-02-06 19:33:00
1:53 PM,23.2,17.6,79,29.88,10.0,East,8.1,-,N/A,,Clear,100,2013-02-06 19:53:00
2:13 PM,24.3,18.3,78,29.88,10.0,ESE,9.2,-,N/A,,Clear,110,2013-02-06 20:13:00
2:33 PM,22.6,17.4,80,29.87,10.0,East,9.2,-,N/A,,Clear,90,2013-02-06 20:33:00
2:53 PM,22.8,17.4,80,29.87,10.0,East,8.1,-,N/A,,Clear,80,2013-02-06 20:53:00
3:13 PM,23.0,17.8,80,29.87,10.0,East,6.9,-,N/A,,Clear,90,2013-02-06 21:13:00
3:33 PM,23.7,18.0,79,29.87,10.0,East,6.9,-,N/A,,Clear,100,2013-02-06 21:33:00
3:53 PM,23.9,18.1,79,29.88,10.0,East,8.1,-,N/A,,Clear,80,2013-02-06 21:53:00
4:13 PM,23.2,17.6,79,29.88,10.0,East,8.1,-,N/A,,Clear,80,2013-02-06 22:13:00
4:53 PM,21.7,16.7,81,29.88,7.0,East,8.1,-,N/A,,Clear,90,2013-02-06 22:53:00
5:13 PM,21.0,16.2,81,29.89,7.0,ENE,5.8,-,N/A,,Clear,70,2013-02-06 23:13:00
5:33 PM,20.3,15.8,83,29.89,7.0,East,5.8,-,N/A,,Clear,80,2013-02-06 23:33:00
5:53 PM,19.8,15.6,84,29.90,7.0,ENE,5.8,-,N/A,,Clear,70,2013-02-06 23:53:00
6:13 PM,19.2,15.4,85,29.90,7.0,ENE,5.8,-,N/A,,Clear,60,2013-02-07 00:13:00
6:33 PM,18.9,15.1,85,29.91,7.0,NE,6.9,-,N/A,,Clear,50,2013-02-07 00:33:00
6:53 PM,17.1,13.6,86,29.92,7.0,NE,5.8,-,N/A,,Clear,40,2013-02-07 00:53:00
7:13 PM,16.7,14.0,89,29.92,7.0,NE,5.8,-,N/A,,Clear,50,2013-02-07 01:13:00
7:33 PM,17.1,14.5,90,29.92,7.0,ENE,5.8,-,N/A,,Clear,60,2013-02-07 01:33:00
7:53 PM,17.4,14.4,88,29.93,7.0,ENE,3.5,-,N/A,,Clear,60,2013-02-07 01:53:00
8:13 PM,17.2,14.4,88,29.93,7.0,Calm,Calm,-,N/A,,Mostly Cloudy,0,2013-02-07 02:13:00
8:33 PM,19.9,17.2,89,29.93,7.0,NE,5.8,-,N/A,,Overcast,40,2013-02-07 02:33:00
8:53 PM,21.6,18.3,87,29.93,7.0,NE,8.1,-,N/A,,Overcast,50,2013-02-07 02:53:00
9:13 PM,21.7,18.3,87,29.94,7.0,NE,5.8,-,N/A,,Overcast,40,2013-02-07 03:13:00
9:33 PM,21.7,18.3,87,29.95,7.0,NE,6.9,-,N/A,,Overcast,40,2013-02-07 03:33:00
9:53 PM,21.7,18.5,87,29.96,7.0,NE,5.8,-,N/A,,Overcast,50,2013-02-07 03:53:00
10:13 PM,21.7,18.3,87,29.97,7.0,NNE,5.8,-,N/A,,Overcast,30,2013-02-07 04:13:00
10:33 PM,21.7,18.3,87,29.97,7.0,NNE,8.1,-,N/A,,Overcast,30,2013-02-07 04:33:00
10:53 PM,21.7,18.3,87,29.97,7.0,NNE,8.1,-,N/A,,Overcast,20,2013-02-07 04:53:00
11:13 PM,21.7,18.3,87,29.98,7.0,NNE,8.1,-,N/A,,Overcast,20,2013-02-07 05:13:00
11:33 PM,21.7,18.3,87,29.99,7.0,NNE,8.1,-,N/A,,Overcast,20,2013-02-07 05:33:00
11:53 PM,21.7,18.5,87,30.00,7.0,NNE,6.9,-,N/A,,Overcast,20,2013-02-07 05:53:00